星链-3520 (STARLINK-3520 )

导读 | 星芒AI

STARLINK-3520 是 SpaceX Starlink 项目中的一颗低轨通信卫星,属于第 35 批发射的星链卫星群。该卫星于 2023 年发射,部署在约 550 公里的轨道高度,旨在为全球用户提供高速、低延迟的互联网服务。作为星链星座的一部分,STARLINK-3520 采用先进推进系统和激光通信技术,支持星座内高速数据传输,提升网络性能与覆盖范围。该卫星运行稳定,是 SpaceX 打造全球宽带网络的重要组成。

基本信息
目录编号:
51741
目录名称:
STARLINK-3520
国际标识:
2022-016AD
轨道中心:
EARTH
卫星名称:
星链-3520
卫星全名:
星链-3520 (STARLINK-3520 )
卫星状态:
在轨 (已飞行1398 天)
发射日期:
2022-02-21 UTC
国别 :
美国 (US)
星等 :
--
轨道信息
数据来源 国际轨道数据 AOE轨道数据
星历时间 2025-12-20T13:17:06+0800
7小时前
查看轨道信息
2025-12-18T20:00:00+0800
2天前
查看轨道信息
半长轴 6917.899km 6917.923km
偏心率 0.0001432 0.0002195
轨道倾角 53.219° 53.215°
近地点辐角 85.106° 109.156°
升交点赤经 315.883° 323.607°
平近点角 275.009° 261.997°
近地点 538.771km 538.269km
远地点 540.753km 541.307km
周期 95.438分钟 95.438分钟
每日圈数 15.08834 15.088262
详细信息
固有亮度:
5
最大亮度:
2.5
卫星平台:
Starlink v1.5
覆盖范围:
全球
运营商:
太空探索技术公司
运营商所在国:
美国
制造商(研发单位):
太空探索技术公司
制造商所在国:
美国
使用方式:
暂无
卫星简介
星链(Starlink)计划是由太空探索技术公司(SpaceX)提出的一个巨型低轨卫星互联网星座项目,计划在2019年至2024年间在太空搭建由约1.2万颗卫星组成的“星链”网络,其中1584颗将部署在地球上空550千米处的近地轨道,并从2020年开始工作。该卫星仍在工作。
2D轨道图
3D轨道图
轨道高度分析图
轨道倾角分析图
轨道综合分析图
查看轨道综合分析图